Regional Weather Roundup
Issued by NWS Charleston, WV

Home | Current Version | Previous Version | Text Only | Print | Product List | Glossary Off
Versions: 1 2 3 4 5 6 7 8 9 10 11 12 13 14 15 16 17 18 19 20 21 22 23 24 25 26 27 28 29 30 31 32 33 34 35 36 37 38 39 40 41 42 43 44 45 46 47 48 49 50

000
ASUS41 KRLX 301610
RWRRLX
West Virginia Regional Weather Roundup
National Weather Service Charleston WV
1200 PM EDT THU JUL 30 2015

Note: "fair" indicates few or no clouds below 12,000 feet with no
significant weather and/or obstructions to visibility.

WVZ003-301700-
Northern Panhandle of West Virginia

CITY           SKY/WX    TMP DP  RH WIND       PRES   REMARKS
WHEELING       SUNNY     82  55  39 W7        30.02R
$$

WVZ009-301700-
Northwest West Virginia

CITY           SKY/WX    TMP DP  RH WIND       PRES   REMARKS
PARKERSBURG    SUNNY     84  60  44 W8        30.05R
$$

WVZ006-301700-
Western West Virginia

CITY           SKY/WX    TMP DP  RH WIND       PRES   REMARKS
HUNTINGTON     SUNNY     84  58  40 VRB6      30.05S
$$

WVZ015-301700-
West Central West Virginia

CITY           SKY/WX    TMP DP  RH WIND       PRES   REMARKS
CHARLESTON     MOSUNNY   82  68  62 N6        30.04S
$$

WVZ022-031-301700-
North Central West Virginia

CITY           SKY/WX    TMP DP  RH WIND       PRES   REMARKS
CLARKSBURG     MOSUNNY   81  69  67 VRB3      30.01S
MORGANTOWN     MOSUNNY   83  63  50 CALM      30.02R
$$

WVZ025-035-042-045-301700-
Southern West Virginia

CITY           SKY/WX    TMP DP  RH WIND       PRES   REMARKS
BECKLEY        PTSUNNY   79  70  74 NW10      30.11S
LOGAN            N/A     79  72  78 CALM      30.04F
BLUEFIELD      PTSUNNY   78  69  73 NW9       30.14S
LEWISBURG      PTSUNNY   79  72  77 CALM      30.09S
$$

WVZ047-301700-
Northern Mountains of West Virginia

CITY           SKY/WX    TMP DP  RH WIND       PRES   REMARKS
ELKINS         LGT RAIN  79  69  71 VRB6      30.06S
$$

WVZ052-301700-
Eastern Panhandle of West Virginia

CITY           SKY/WX    TMP DP  RH WIND       PRES   REMARKS
MARTINSBURG    LGT RAIN  77  74  90 W12       29.96R FOG
PETERSBURG     PTSUNNY  N/A N/A N/A CALM      29.98F
$$



USA.gov is the U.S. government's official web portal to all federal, state and local government web resources and services.